FLOCK 2K-11

Last updated on Wed Feb 14 2018 16:20:54 GMT+0000 (Coordinated Universal Time)

1 42894U 17042BX 18044.70005769 .00006665 00000-0 19444-3 0 9990 2 42894 96.9932 307.6107 0012559 174.9377 185.1997 15.35577622 32683
UTC large
Height (km)
Speed (km/s)
/
Latitude / Longitude
Inclination (degrees)
Orbital Period (minutes)
Azimuth
Elevation
Range (km)
Doppler Factor

Next 0 passes for location: London (51.5072 / 0.1276)

Sorry there are no passes over London.